COSMOS 1275 DEB, 42164

Orbit data source: Space-Track

COSMOS 1275 DEB, 42164 is space debris in LEO originally from a launch on Thu, 04 Jun 1981 UTC launched from the Plesetsk Missile And Space Complex (PKMTR). Debris objects in space refer to the collection of defunct objects orbiting the Earth. Examples of debris include non-operational satellites, rocket bodies, and fragments generated from explosions, collisions, or faulty payload assembly.

Loading next visibility...
COSMOS 1275 DEB details
Identifier
42164, 1981-053SC
Orbit
LEO
Last TLE update2 days ago
Origin
Flag of CISGUKOS (CIS)
ManufacturerUnknown
MissionSpacecraft
Bus & MotorUnknown
MassUnknown
Launch date (UTC)
1981-06-04 (44 years ago)
Launch vehicleUnknown
Launch site
Plesetsk Missile And Space Complex (PKMTR)
Object type
Payload
Rocket body
Debris
Shape & HBRUnknown
Radar Cross SectionSmall (<0.1 m²)

Expand to show TLE details & history

TLE from 2 days ago
0 COSMOS 1275 DEB
1 42164U 81053SC  24347.57793735  .00011719  00000-0  33246-2 0  9999
2 42164  82.9166  84.5287 0024683 314.4980  45.4196 14.45209269575465
Epoch: 2024-12-12T13:52Z
Definitive object data (Epoch: 2024-12-12T13:52:13.787Z)
Latitude-0.0001°
Longitude154.71498°
Altitude732.02 km
Speed7.496 km/s
True Right ascension05h 38m 06s
True Declination0° 00' 00"
Sunlit
Object was in full shadow at TLE epoch
Visualization TLE readout
Latitude-38.75533°
Longitude-20.89777°
Altitude756.209 km
Speed7.475 km/s
Apparent Right ascension16h 05m 40s
Apparent Declination-43° 03' 60"
Sunlit
Object is in daylight
Visualization observer readout
Local Sidereal Time01:59:01
Azimuth251.982° W
Elevation-66.216°
Doppler factor1
Orbital elements
Apogee altitude755.958 km
Perigee altitude720.826 km
Semi-major axis7,116.529 km
Eccentricity0.0024683
Inclination82.9166°
RAAN84.5287°
Arg. of periapsis314.498°
True anomaly45.6215°
Mean anomaly45.4196°
Eccentric anomaly45.52051°
Mean motion3.61527 °/min
BSTAR0.0033246
Orbital period99.58 mins
Loading maneuver chart data...
Loading historical data...
Loading historical data...
Loading historical data...
Loading historical data...
Loading historical data...
Loading historical data...
Loading historical data...

COSMOS 1275 DEB Visibility forecast

Observer location: undefined°, undefined

Span
Click to sort rows by Start time (UTC) header in descending order
Start Az.
Max El. time (UTC)
Max El. Az.
Max El.
End time (UTC)
End Az.
8 mins2024-12-14 07:32:17.963Z198.617° SSW2024-12-14 07:36:17.963Z309.92° NW41.883°2024-12-14 07:40:17.963Z0.428° NNE
7 mins2024-12-14 17:58:17.963Z15.946° NNE2024-12-14 18:01:17.963Z77.161° E35.419°2024-12-14 18:05:17.963Z147.601° SSE
5 mins2024-12-14 19:39:17.963Z303.73° NW2024-12-14 19:41:17.963Z275.478° WNW17.955°2024-12-14 19:44:17.963Z236.227° WSW
|